Location: Toronto
(43.6667°N, 79.4167°W)
Time: 00:51:53
(UTC-04:00)

Tianhe-1 - Visible Passes

Search period start: 25 June 2021 00:00
Search period end: 05 July 2021 00:00
Orbit: 375 x 385 km, 41.5° (Epoch: 24 June)

Date Brightness Start Highest point End Pass type
(mag) Time Alt. Az. Time Alt. Az. Time Alt. Az.
25 Jun 2.3 03:10:19 29° SE 03:10:19 29° SE 03:12:20 10° E visible
25 Jun 1.2 04:42:50 10° W 04:45:56 57° S 04:49:01 10° ESE visible
26 Jun 1.1 03:44:01 39° SW 03:44:51 56° S 03:47:57 10° E visible
27 Jun 3.1 02:45:39 20° ESE 02:45:39 20° ESE 02:46:48 10° E visible
27 Jun 1.2 04:17:47 14° W 04:20:20 52° S 04:23:23 10° ESE visible
28 Jun 1.2 03:19:32 53° SSE 03:19:32 53° SSE 03:22:16 10° ESE visible
28 Jun 1.9 04:52:50 10° W 04:55:41 32° SSW 04:58:32 10° SE visible
29 Jun 1.4 03:53:39 32° WSW 03:54:33 43° SSW 03:57:33 10° ESE visible
30 Jun 3.6 02:56:00 13° ESE 02:56:00 13° ESE 02:56:26 10° ESE visible
30 Jun 2.3 04:28:11 16° WSW 04:29:46 23° SSW 04:32:19 10° SSE visible
01 Jul 3.5 03:31:09 12° SE 03:31:09 12° SE 03:31:29 10° SE visible
02 Jul 2.7 22:11:14 10° SSW 22:13:12 16° SSE 22:13:12 16° SSE visible
03 Jul 1.7 22:45:25 10° SW 22:48:10 33° SSE 22:48:10 33° SSE visible
04 Jul 2.3 21:44:26 10° SSW 21:46:59 23° SSE 21:49:32 10° ESE visible
04 Jul 1.9 23:20:20 10° WSW 23:22:27 36° SW 23:22:27 36° SW visible
